• Join FlightAware (Why Join?)
  • Login
  • US Flag 
01:52AM EDT


 

Airport Tracker/Info


-or-


 

Live Flight TrackerFlight Track Log ✈ N517CP ✈ 03-May-2013 ✈ KEDC - KNEW

Flight Track Log - Related Links

Times and Time Zones

All times are in EDT time to prevent confusion due to time zone crossing. See the N517CP flight status page for this flight to view local times or setup timezone preferences in your user account.

Time Position Orientation Groundspeed Altitude Reporting Facility
EDT Latitude Longitude Course Direction KTS MPH feet Rate Location/Type
09:26AM 30.3850 -97.4731 111° Southeast 133 153 4,500  Level Houston Center
09:27AM 30.3639 -97.4333 122° Southeast 141 162 5,500 840 Climbing Houston Center
09:28AM 30.3511 -97.3894 109° East 142 163 6,300 720 Climbing Houston Center
09:29AM 30.3378 -97.3436 109° East 147 169 7,000 720 Climbing Houston Center
09:30AM 30.3899 -97.1847 90° East  Level Estimated
09:30AM 30.3286 -97.2972 103° East 148 170 7,800  Level Houston Center
09:31AM 30.3699 -97.1254 111° Southeast  Level FlightAware Approximate
09:31AM 30.3217 -97.2492 99° East 149 171 8,200  Level Houston Center
09:32AM 30.3167 -97.2011 97° East 149 171 8,800 240 Climbing Houston Center
09:33AM 30.3136 -97.1372 93° East 163 188 8,800  Level Houston Center
09:34AM 30.3144 -97.0756 89° East 184 212 8,800  Level Houston Center
09:35AM 30.3144 -97.0164 90° East 184 212 8,900  Climbing Houston Center
09:36AM 30.3164 -96.9569 88° East 184 212 8,900  Level Houston Center
09:37AM 30.3183 -96.8978 88° East 184 212 8,900  Level Houston Center
09:38AM 30.3225 -96.8367 85° East 188 216 8,900  Level Houston Center
09:39AM 30.3236 -96.7764 89° East 188 216 8,900  Level Houston Center
09:40AM 30.3183 -96.7053 95° East 189 217 8,900  Level Houston Center
09:41AM 30.3161 -96.6431 92° East 191 220 8,900  Level Houston Center
09:42AM 30.3142 -96.5806 92° East 193 222 8,900  Level Houston Center
09:43AM 30.3103 -96.5186 94° East 192 221 8,900  Level Houston Center
09:44AM 30.3072 -96.4558 93° East 194 223 8,900 60 Level Houston Center
09:45AM 30.3067 -96.4336 92° East 195 224 9,000  Climbing Houston Center
09:45AM 30.3047 -96.3925 93° East 194 223 8,900 -60 Descending Houston Center
09:46AM 30.3014 -96.3300 94° East 194 223 8,900  Level Houston Center
09:47AM 30.2992 -96.2667 92° East 195 224 8,900 60 Level Houston Center
09:48AM 30.2947 -96.1933 94° East 192 221 9,100 60 Climbing Houston Center
09:49AM 30.2914 -96.1283 93° East 195 224 9,100  Level Houston Center
09:50AM 30.2881 -96.0658 94° East 195 224 9,100  Level Houston Center
09:51AM 30.2850 -96.0033 93° East 196 226 9,100  Level Houston Center
09:52AM 30.2792 -95.9364 96° East 196 226 9,100  Level Houston Center
09:53AM 30.2758 -95.8764 94° East 198 228 9,100 -60 Level Houston Center
09:55AM 30.2722 -95.8136 94° East 196 226 9,000  Descending Houston Center
09:56AM 30.2664 -95.7444 96° East 197 227 9,100  Climbing Houston Center
09:57AM 30.2631 -95.6819 94° East 196 226 9,100 -60 Level Houston Center
09:58AM 30.2594 -95.6169 94° East 198 228 9,000 -60 Descending Houston Center
09:59AM 30.2533 -95.5500 96° East 200 230 9,000  Level Houston Center
10:00AM 30.2497 -95.4853 94° East 199 229 9,000  Level Houston Center
10:01AM 30.2456 -95.4181 94° East 207 238 9,000  Level Houston Center
10:02AM 30.2403 -95.3581 96° East 203 234 9,000  Level Houston Center
10:02AM 30.2411 -95.3519 81° East 203 234 9,000 -120 Level Houston Center
10:03AM 30.2364 -95.2933 95° East 200 230 8,900  Descending Houston Center
10:03AM 30.2361 -95.2881 93° East 200 230 9,000 60 Climbing Houston Center
10:04AM 30.2306 -95.2289 96° East 202 232 9,000  Level Houston Center
10:04AM 30.2311 -95.2097 88° East 202 232 9,000  Level Houston Center
10:05AM 30.2264 -95.1617 96° East 204 235 9,000  Level Houston Center
10:05AM 30.2264 -95.1444 90° East 203 234 9,000  Level Houston Center
10:06AM 30.2225 -95.0967 95° East 202 232 9,000  Level Houston Center
10:06AM 30.2219 -95.0794 92° East 203 234 9,000  Level Houston Center
10:07AM 30.2183 -95.0319 95° East 204 235 9,000  Level Houston Center
10:07AM 30.2172 -95.0136 94° East 204 235 9,000  Level Houston Center
10:08AM 30.2119 -94.9625 97° East 203 234 9,000  Level Houston Center
10:08AM 30.2125 -94.9478 87° East 205 236 9,000  Level Houston Center
10:09AM 30.2081 -94.8978 96° East 204 235 9,000  Level Houston Center
10:09AM 30.2075 -94.8831 92° East 204 235 9,000  Level Houston Center
10:10AM 30.2017 -94.8308 97° East 205 236 9,000  Level Houston Center
10:10AM 30.2022 -94.8047 89° East 204 235 9,000  Level Houston Center
10:11AM 30.1975 -94.7661 98° East 203 234 9,000  Level Houston Center
10:11AM 30.1969 -94.7394 91° East 204 235 9,000  Level Houston Center
10:12AM 30.1925 -94.6917 96° East 203 234 9,000  Level Houston Center
10:12AM 30.1925 -94.6750 90° East 202 232 9,000  Level Houston Center
10:13AM 30.1881 -94.6247 96° East 205 236 9,000  Level Houston Center
10:13AM 30.1886 -94.6089 88° East 204 235 9,000  Level Houston Center
10:14AM 30.1858 -94.5597 94° East 202 232 9,000  Level Houston Center
10:14AM 30.1878 -94.5447 81° East 202 232 9,000  Level Houston Center
10:15AM 30.1861 -94.4967 92° East 200 230 9,000  Level Houston Center
10:15AM 30.1858 -94.4711 91° East 200 230 9,000  Level Houston Center
10:16AM 30.1839 -94.4317 93° East 198 228 9,000  Level Houston Center
10:16AM 30.1844 -94.4083 88° East 197 227 9,000  Level Houston Center
10:17AM 30.1814 -94.3642 95° East 199 229 9,000  Level Houston Center
10:17AM 30.1825 -94.3444 86° East 199 229 9,000  Level Houston Center
10:18AM 30.1794 -94.3017 95° East 198 228 9,000  Level Houston Center
10:18AM 30.1806 -94.2822 86° East 196 226 9,000  Level Houston Center
10:19AM 30.1772 -94.2367 95° East 199 229 9,000  Level Houston Center
10:19AM 30.1797 -94.2169 82° East 200 230 9,000  Level Houston Center
10:20AM 30.1750 -94.1739 97° East 200 230 9,000  Level Houston Center
10:20AM 30.1769 -94.1400 86° East 201 231 9,000 60 Level Houston Center
10:21AM 30.1753 -94.0756 92° East 201 231 9,100  Climbing Houston Center
10:23AM 30.1728 -94.0117 93° East 200 230 9,100  Level Houston Center
10:24AM 30.1706 -93.9467 92° East 203 234 9,100  Level Houston Center
10:25AM 30.1686 -93.8822 92° East 201 231 9,100  Level Houston Center
10:26AM 30.1664 -93.8044 92° East 203 234 9,100  Level Houston Center
10:27AM 30.1639 -93.7403 93° East 202 232 9,100  Level Houston Center
10:28AM 30.1619 -93.6764 92° East 201 231 9,100  Level Houston Center
10:29AM 30.1594 -93.6133 93° East 199 229 9,100  Level Houston Center
10:30AM 30.1583 -93.5489 91° East 201 231 9,100  Level Houston Center
10:31AM 30.1542 -93.4717 94° East 203 234 9,100  Level Houston Center
10:32AM 30.1528 -93.4072 91° East 203 234 9,100  Level Houston Center
10:33AM 30.1506 -93.3431 92° East 202 232 9,100 -60 Level Houston Center
10:34AM 30.1478 -93.2769 93° East 207 238 9,000 -60 Descending Houston Center
10:35AM 30.1461 -93.2139 92° East 199 229 9,000  Level Houston Center
10:36AM 30.1419 -93.1372 94° East 199 229 9,100  Climbing Houston Center
10:37AM 30.1425 -93.0711 89° East 206 237 9,100  Level Houston Center
10:38AM 30.1467 -93.0069 86° East 203 234 9,100  Level Houston Center
10:39AM 30.1497 -92.9414 87° East 204 235 9,100  Level Houston Center
10:40AM 30.1528 -92.8750 87° East 206 237 9,100  Level Houston Center
10:41AM 30.1564 -92.8094 86° East 206 237 9,100  Level Houston Center
10:42AM 30.1603 -92.7294 87° East 209 241 9,100  Level Houston Center
10:43AM 30.1631 -92.6642 87° East 205 236 9,100 -60 Level Houston Center
10:44AM 30.1664 -92.5992 87° East 204 235 9,000 -60 Descending Houston Center
10:45AM 30.1692 -92.5333 87° East 205 236 9,000  Level Houston Center
10:46AM 30.1722 -92.4686 87° East 204 235 9,000  Level Houston Center
10:47AM 30.1764 -92.3911 86° East 203 234 9,000  Level Houston Center
10:48AM 30.1786 -92.3272 88° East 201 231 9,000  Level Houston Center
10:49AM 30.1822 -92.2628 86° East 201 231 9,000  Level Houston Center
10:50AM 30.1839 -92.1992 88° East 199 229 9,000  Level Houston Center
10:52AM 30.1875 -92.1342 86° East 200 230 9,000  Level Houston Center
10:53AM 30.1908 -92.0694 87° East 202 232 9,000  Level Houston Center
10:54AM 30.1931 -91.9922 88° East 201 231 9,000  Level Houston Center
10:55AM 30.1908 -91.9289 92° East 199 229 9,000  Level Houston Center
10:56AM 30.1850 -91.8664 96° East 197 227 9,000  Level Houston Center
10:57AM 30.1808 -91.8042 94° East 196 226 9,000  Level Houston Center
10:58AM 30.1750 -91.7425 96° East 194 223 9,000 -60 Level Houston Center
10:59AM 30.1717 -91.6756 93° East 194 223 8,900 -60 Descending Houston Center
11:00AM 30.1667 -91.6147 95° East 191 220 8,900  Level Houston Center
11:01AM 30.1628 -91.5411 93° East 192 221 8,900  Level Houston Center
11:02AM 30.1583 -91.4803 95° East 190 219 8,900  Level Houston Center
11:03AM 30.1536 -91.4186 95° East 193 222 8,900  Level Houston Center
11:04AM 30.1489 -91.3569 95° East 193 222 8,900  Level Houston Center
11:05AM 30.1436 -91.2953 96° East 193 222 8,900  Level Houston Center
11:06AM 30.1403 -91.2400 94° East 192 221 8,900  Level Houston Center
11:06AM 30.1386 -91.2358 115° Southeast 189 217 8,900  Level Houston Center
11:06AM 30.1372 -91.1969 92° East 193 222 8,900  Level Houston Center
11:07AM 30.1328 -91.1614 98° East 193 222 8,900  Level Houston Center
11:07AM 30.1317 -91.1369 93° East 192 221 8,900  Level Houston Center
11:08AM 30.1289 -91.1014 95° East 190 219 8,900  Level Houston Center
11:09AM 30.1256 -91.0628 96° East 189 217 8,900  Level Houston Center
11:09AM 30.1236 -91.0406 96° East 190 219 8,900  Level Houston Center
11:09AM 30.1225 -91.0172 93° East 188 216 8,900 -120 Level Houston Center
11:10AM 30.1122 -90.9839 110° East 188 216 8,800 -300 Descending Houston Center
11:10AM 30.1003 -90.9625 123° Southeast 193 222 8,600 -420 Descending Houston Center
11:11AM 30.0864 -90.9281 115° Southeast 194 223 8,400 -540 Descending Houston Center
11:11AM 30.0714 -90.9011 123° Southeast 200 230 8,100 -540 Descending Houston Center
11:12AM 30.0603 -90.8736 115° Southeast 196 226 7,900 -540 Descending Houston Center
11:13AM 30.0469 -90.8467 120° Southeast 193 222 7,600 -720 Descending Houston Center
11:13AM 30.0317 -90.8122 117° Southeast 189 217 7,200 -540 Descending Houston Center
11:14AM 30.0292 -90.7969 101° East 174 200 7,100 -540 Descending Houston Center
11:14AM 30.0244 -90.7558 98° East 187 215 6,700 -660 Descending Houston Center
11:15AM 30.0211 -90.7347 100° East 178 205 6,400 -600 Descending Houston Center
11:15AM 30.0167 -90.7008 99° East 179 206 6,100 -600 Descending Houston Center
11:16AM 30.0050 -90.6753 118° Southeast 185 213 5,800 -660 Descending Houston Center
11:17AM 29.9889 -90.6278 111° Southeast 185 213 5,300 -540 Descending Houston Center
11:17AM 29.9808 -90.5908 104° East 181 208 4,900 -600 Descending Houston Center
11:18AM 29.9600 -90.5256 110° East 181 208 4,200 -720 Descending Houston Center
11:19AM 29.9544 -90.5092 111° Southeast 180 207 4,000 -600 Descending Houston Center
11:19AM 29.9422 -90.4706 110° East 182 209 3,600 -600 Descending Houston Center
11:21AM 29.9222 -90.4172 113° Southeast 182 209 3,000 -300 Descending Houston Center
11:22AM 29.9000 -90.3625 115° Southeast 166 191 3,000  Level Houston Center
11:23AM 29.8772 -90.3058 115° Southeast 162 186 3,000  Level Houston Center
11:24AM 29.8614 -90.2628 113° Southeast 167 192 3,000  Level Houston Center
11:25AM 29.8436 -90.2144 113° Southeast 165 190 3,000  Level Houston Center
11:26AM 29.8242 -90.1667 115° Southeast 165 190 3,000 -120 Level Houston Center
11:27AM 29.8278 -90.1164 85° East 172 198 2,800 -240 Descending Houston Center
11:28AM 29.8444 -90.0578 72° East 173 199 2,600 -120 Descending Houston Center
11:29AM 29.8731 -90.0303 40° Northeast 156 180 2,600 -360 Level Houston Center
11:30AM 29.9222 -90.0292 North 150 173 1,900 -660 Descending Houston Center
11:31AM 29.9522 -90.0292 360° North 116 133 1,300 -600 Descending Houston Center
11:32AM 29.9817 -90.0306 358° North 98 113 800 -540 Descending Houston Center
11:33AM 30.0150 -90.0314 359° North 121 139 300 -540 Descending Houston Center